Location: Julian California
(33.0790°N, 116.6010°W)
Time: 21:32:32
(UTC-07:00)

Daily predictions for brighter satellites

Satellite Brightness Start Highest point End
(mag) Time Altitude Azimuth Time Altitude Azimuth Time Altitude Azimuth
Cosmos 2227 Rocket 2.2 19:18:46 10° NNW 19:24:26 73° ENE 19:30:02 10° SSE
Ariane Rocket 3.0 19:23:06 10° SSE 19:28:09 78° ENE 19:33:14 10° N
SEDSat Delta rocket 3.1 19:25:46 10° WSW 19:29:43 53° SSE 19:33:53 10° E
Cosmos 1605 Rocket 4.0 19:24:51 10° N 19:31:06 85° E 19:37:24 10° S
HJ-1C 4.5 19:29:29 10° SE 19:32:21 26° ENE 19:35:14 10° NNE
Cosmos 1939 Rocket 3.8 19:31:20 10° SE 19:34:42 27° ENE 19:38:07 10° NNE
Hubble Space Telescope 2.5 19:33:10 10° SSW 19:36:01 18° SSE 19:38:50 10° ESE
Cosmos 1727 Rocket 4.0 19:30:43 10° S 19:36:58 86° E 19:43:19 10° N
Cosmos 1697 Rocket 3.1 19:32:17 10° SSW 19:37:54 70° WNW 19:43:33 10° NNE
Cosmos 2322 Rocket 3.6 19:37:28 10° SE 19:40:18 14° E 19:43:10 10° ENE
ASTRO E2 4.3 19:40:44 10° SSW 19:43:40 20° SSE 19:45:55 13° ESE
Cosmos 1340 2.7 19:40:56 10° S 19:44:42 85° W 19:48:28 10° N
Cosmos 371 Rocket 3.5 19:40:59 10° NNW 19:45:47 75° WSW 19:50:32 10° S
Cosmos 1805 4.4 19:42:54 10° SE 19:45:57 22° E 19:49:00 10° NE
Cosmos 2360 4.2 19:43:27 10° SSW 19:49:08 86° ESE 19:54:52 10° NNE
Cosmos 1190 Rocket 4.0 19:47:28 10° S 19:52:41 68° ESE 19:57:57 10° NNE
SJ-6B 3.8 19:50:35 15° ESE 19:52:53 25° ENE 19:55:58 10° NNE
YAOGAN 6 2.8 19:50:42 10° S 19:54:23 77° W 19:58:04 10° NNW
Cosmos 1707 2.8 19:50:39 10° N 19:54:31 82° W 19:58:21 10° S
Cosmos 304 Rocket 4.0 19:50:07 10° N 19:54:46 48° ENE 19:59:22 10° SE
NOSS 3-2 (C) 4.3 19:52:33 10° SSE 19:57:06 24° ESE 20:01:57 10° ENE
Cosmos 614 Rocket 3.9 19:54:20 10° S 19:59:23 63° ESE 20:04:32 10° NNE
OAO 3 Rocket 4.3 19:57:54 10° W 20:02:22 38° SSW 20:06:08 14° SE
Cosmos 407 Rocket 3.5 19:58:04 10° SSW 20:03:22 88° WNW 20:08:38 10° NNE
SL-16 R/B 2.9 20:00:01 10° SSE 20:04:47 29° ESE 20:09:34 10° NE
In-Cosmos 22 4.1 19:59:34 10° N 20:05:03 60° E 20:10:22 10° SSE
NOSS 3-2 (A) 3.5 19:59:50 10° S 20:05:08 44° ESE 20:10:53 10° NE
Cosmos 2263 Rocket 3.9 20:03:37 10° NNE 20:06:29 14° NE 20:07:09 14° ENE
Cosmos 2297 Rocket 3.4 20:02:56 10° NW 20:08:16 44° WSW 20:13:34 10° S
Cosmos 1602 Rocket 3.8 20:06:19 10° N 20:10:32 44° E 20:13:34 18° SSE
Cosmos 2082 4.1 20:07:20 10° NNW 20:12:52 63° WSW 20:18:23 10° S
Cosmos 2123 Rocket 4.2 20:07:36 10° SSE 20:13:26 46° E 20:19:17 10° NNE
FALCON 9 R/B 3.9 19:19:24 10° W 20:16:12 62° SSW 20:22:02 22° SE
CZ-2D R/B 4.2 20:14:03 10° S 20:17:45 50° W 20:21:30 10° NNW
ATLAS 3B R/B 3.0 20:11:54 10° S 20:18:22 42° ESE 20:24:40 10° NE
Resurs 01 Rocket 3.1 20:19:54 20° NE 20:19:54 20° NE 20:22:29 10° NNE
Delta 2 Rocket 3.5 20:15:45 10° W 20:19:56 58° N 20:21:25 33° ENE
USA 186 1.8 20:21:24 45° SE 20:22:11 61° ENE 20:25:27 10° N
Cosmos 1140 Rocket 3.4 20:17:42 10° SSW 20:22:55 84° ESE 20:28:11 10° NNE
Cosmos 2016 Rocket 4.0 20:20:56 10° N 20:27:07 58° E 20:32:09 15° SSE
COBE Rocket 3.8 20:24:25 10° NNE 20:29:10 56° E 20:33:46 10° S
Cosmos 2100 Rocket 4.1 20:26:15 10° N 20:32:31 77° W 20:38:49 10° S
Cosmos 1980 Rocket 3.5 20:27:46 10° SW 20:33:05 42° WNW 20:38:27 10° N
CZ-4C R/B 3.4 20:26:05 10° NNW 20:33:11 45° NE 20:36:21 32° ESE
ATLAS 2A CENTAUR R/B 4.3 20:28:40 10° WSW 20:34:18 63° SSE 20:46:47 27° E
USA 267 3.7 20:33:29 33° E 20:34:52 36° SE 20:40:44 10° S
Meteor 1-24 Rocket 3.5 20:29:59 10° N 20:35:17 64° E 20:37:46 31° SSE
Cosmos 1954 Rocket 4.0 20:30:19 10° SSW 20:35:38 90° WNW 20:40:58 10° NNE
Cosmos 676 Rocket 4.1 20:31:37 10° SSW 20:36:56 79° WNW 20:42:17 10° NNE
Cosmos 2173 Rocket 4.1 20:31:58 10° N 20:38:05 75° W 20:44:16 10° S
Cosmos 1674 3.3 20:35:05 10° N 20:37:53 42° NNE 20:37:53 42° NNE
Cosmos 1766 4.1 20:35:51 10° SSW 20:39:36 50° W 20:43:21 10° N
SL-8 R/B 4.2 20:36:02 10° WNW 20:40:44 53° SW 20:42:23 35° SSE
ARGOS 3.7 20:42:26 38° ENE 20:42:26 38° ENE 20:47:17 10° N
Cosmos 2061 Rocket 4.0 20:38:42 10° N 20:45:03 87° W 20:51:26 10° S
Meteor 2-5 Rocket 4.0 20:40:54 10° NNW 20:46:21 64° W 20:51:47 10° S
SPOT 3 Rocket 4.3 20:41:40 10° S 20:46:44 53° W 20:51:50 10° NNW
DELTA 2 R/B (1) 3.8 20:41:52 10° W 20:47:24 65° NNW 20:49:35 36° NE
Cosmos 1802 Rocket 4.2 20:45:36 10° N 20:51:42 70° W 20:57:46 10° S
Cosmos 1864 Rocket 4.4 20:47:38 10° N 20:54:00 76° E 20:56:43 37° SSE
Iridium 4 Rocket 4.1 20:50:45 10° SSW 20:55:06 49° W 20:59:54 10° N
Cosmos 1725 Rocket 3.8 20:51:42 10° N 20:57:58 81° E 21:00:23 40° SSE
H-2A R/B 2.4 20:58:46 51° NE 20:58:46 51° NE 21:03:24 10° N
Resurs 1-3 4.4 21:15:42 48° NW 21:15:42 48° NW 21:19:00 10° NNW
SEDSat Delta rocket 4.1 21:11:27 10° W 21:14:06 38° WSW 21:14:06 38° WSW
Hubble Space Telescope 3.0 21:12:56 10° WSW 21:14:11 18° SW 21:14:11 18° SW
Cosmos 2322 Rocket 2.6 21:18:14 10° SSW 21:23:44 59° WNW 21:29:16 10° NNE
NOSS 3-2 (C) 4.4 21:41:57 10° SW 21:47:32 43° NW 21:53:39 10° NNE
SL-16 R/B 3.8 21:43:44 10° SW 21:48:43 32° WNW 21:53:44 10° N
Cosmos 2263 Rocket 3.3 21:45:22 10° NNW 21:48:53 39° NW 21:48:53 39° NW
Resurs 01 Rocket 4.1 21:57:28 20° WNW 21:57:28 20° WNW 21:59:15 10° NW
ATLAS 3B R/B 4.1 22:02:55 10° WSW 22:09:04 33° NW 22:15:06 10° NNE
CZ-4C R/B 4.0 22:14:47 10° NW 22:21:35 39° WSW 22:21:35 39° WSW
CZ-3 Stage 3 4.1 21:43:51 10° WSW 22:31:01 80° SSW 22:31:01 80° SSW
